When you browse on this site, cookies collect data to enhance your experience and personalize the content and advertising you see.
Visit our Privacy Policy to learn more. By continuing to use the site, you agree to this use of cookies and data.
  • En España
  • Lista de países
  • Para 7 días
  • Temperatura del agua
  • Mapa Satelital
  • El tiempo en el mapa
  • Informadores
  • user-avatar
    Iniciar sesión

    Tiempo cada hora Kamarang

    Hoy, 19 Febrero, Martes

    Tiempo Temperatura Precipitaciones Viento Presión Humedad
    00:00 +18°C° 0 mm 0 mps 714 mmHg 94%
    01:00 +18°C° 0 mm 0 mps 714 mmHg 95%
    02:00 +18°C° 0 mm 0 mps 714 mmHg 96%
    03:00 +18°C° 0 mm 0 mps 714 mmHg 97%
    04:00 +18°C° 0 mm 0 mps 714 mmHg 97%
    05:00 +17°C° 0 mm 0 mps 714 mmHg 98%
    06:00 +18°C° 0 mm 0 mps 714 mmHg 94%
    07:00 +19°C° 0 mm 0 mps 714 mmHg 90%
    08:00 +20°C° 0 mm 0 mps 715 mmHg 86%
    09:00 +22°C° 0.1 mm 0 mps 715 mmHg 78%
    10:00 +23°C° 0.1 mm 0 mps 715 mmHg 71%
    11:00 +27°C° 0.1 mm 1 mps 716 mmHg 63%
    12:00 +28°C° 0.1 mm 1 mps 715 mmHg 60%
    13:00 +28°C° 0.1 mm 1 mps 714 mmHg 56%
    14:00 +29°C° 0.1 mm 1 mps 713 mmHg 53%
    15:00 +29°C° 0 mm 1 mps 713 mmHg 53%
    16:00 +29°C° 0 mm 1 mps 712 mmHg 54%
    17:00 +29°C° 0 mm 1 mps 712 mmHg 54%
    18:00 +27°C° 0 mm 1 mps 712 mmHg 64%
    19:00 +25°C° 0 mm 1 mps 712 mmHg 74%
    20:00 +21°C° 0 mm 0 mps 713 mmHg 84%
    21:00 +20°C° 0 mm 0 mps 713 mmHg 88%
    22:00 +20°C° 0 mm 0 mps 713 mmHg 91%
    23:00 +19°C° 0 mm 0 mps 714 mmHg 95%

    Mañana, 20 Febrero, Miércoles

    Tiempo Temperatura Precipitaciones Viento Presión Humedad
    00:00 +19°C° 0.1 mm 0 mps 713 mmHg 95%
    01:00 +20°C° 0.1 mm 0 mps 713 mmHg 96%
    02:00 +20°C° 0.1 mm 0 mps 713 mmHg 96%
    03:00 +20°C° 0.1 mm 0 mps 713 mmHg 97%
    04:00 +19°C° 0.1 mm 0 mps 713 mmHg 98%
    05:00 +19°C° 0.1 mm 0 mps 713 mmHg 98%
    06:00 +20°C° 0.1 mm 0 mps 713 mmHg 97%
    07:00 +20°C° 0.1 mm 0 mps 714 mmHg 95%
    08:00 +20°C° 0.1 mm 0 mps 714 mmHg 94%
    09:00 +25°C° 0.1 mm 1 mps 714 mmHg 81%
    10:00 +27°C° 0.1 mm 1 mps 715 mmHg 68%
    11:00 +29°C° 0.1 mm 1 mps 715 mmHg 55%
    12:00 +30°C° 0 mm 1 mps 714 mmHg 51%
    13:00 +31°C° 0 mm 1 mps 713 mmHg 48%
    14:00 +32°C° 0 mm 2 mps 712 mmHg 44%
    15:00 +31°C° 0 mm 2 mps 712 mmHg 45%
    16:00 +31°C° 0 mm 2 mps 711 mmHg 47%
    17:00 +31°C° 0 mm 2 mps 711 mmHg 48%
    18:00 +28°C° 0 mm 2 mps 711 mmHg 61%
    19:00 +26°C° 0 mm 1 mps 712 mmHg 74%
    20:00 +23°C° 0 mm 1 mps 712 mmHg 87%
    21:00 +23°C° 0.1 mm 1 mps 713 mmHg 91%
    22:00 +22°C° 0.1 mm 1 mps 713 mmHg 94%
    23:00 +22°C° 0.1 mm 1 mps 713 mmHg 98%

    Pasado mañana, 21 Febrero, Jueves

    Tiempo Temperatura Precipitaciones Viento Presión Humedad
    00:00 +22°C° 0.2 mm 1 mps 713 mmHg 98%
    01:00 +22°C° 0.2 mm 1 mps 713 mmHg 98%
    02:00 +22°C° 0.2 mm 1 mps 712 mmHg 98%
    03:00 +22°C° 0.1 mm 1 mps 712 mmHg 98%
    04:00 +22°C° 0.1 mm 1 mps 712 mmHg 97%
    05:00 +20°C° 0.1 mm 0 mps 712 mmHg 97%
    06:00 +22°C° 0.1 mm 1 mps 713 mmHg 97%
    07:00 +22°C° 0.1 mm 1 mps 714 mmHg 97%
    08:00 +22°C° 0.1 mm 1 mps 714 mmHg 96%
    09:00 +24°C° 0.1 mm 1 mps 715 mmHg 85%
    10:00 +26°C° 0.1 mm 1 mps 715 mmHg 74%
    11:00 +28°C° 0.1 mm 1 mps 715 mmHg 62%
    12:00 +29°C° 0.1 mm 1 mps 715 mmHg 58%
    13:00 +30°C° 0.1 mm 1 mps 714 mmHg 54%
    14:00 +31°C° 0.1 mm 1 mps 713 mmHg 50%
    15:00 +30°C° 0 mm 1 mps 712 mmHg 51%
    16:00 +30°C° 0 mm 2 mps 712 mmHg 51%
    17:00 +30°C° 0 mm 2 mps 711 mmHg 52%
    18:00 +28°C° 0 mm 1 mps 712 mmHg 60%
    19:00 +25°C° 0 mm 1 mps 712 mmHg 68%
    20:00 +21°C° 0 mm 0 mps 713 mmHg 76%
    21:00 +21°C° 0 mm 0 mps 713 mmHg 79%
    22:00 +22°C° 0 mm 1 mps 713 mmHg 82%
    23:00 +22°C° 0 mm 1 mps 714 mmHg 85%

    22 Febrero, Viernes

    Tiempo Temperatura Precipitaciones Viento Presión Humedad
    00:00 +21°C° 0 mm 1 mps 714 mmHg 88%
    01:00 +19°C° 0 mm 0 mps 713 mmHg 91%
    02:00 +19°C° 0 mm 0 mps 713 mmHg 94%
    03:00 +19°C° 0.1 mm 0 mps 713 mmHg 94%
    04:00 +19°C° 0.1 mm 0 mps 713 mmHg 95%
    05:00 +19°C° 0.1 mm 0 mps 713 mmHg 95%
    06:00 +19°C° 0.1 mm 0 mps 713 mmHg 94%
    07:00 +20°C° 0.1 mm 0 mps 714 mmHg 92%
    08:00 +20°C° 0.1 mm 0 mps 715 mmHg 91%
    09:00 +21°C° 0.1 mm 0 mps 715 mmHg 84%
    10:00 +25°C° 0.1 mm 1 mps 715 mmHg 77%
    11:00 +26°C° 0.1 mm 1 mps 715 mmHg 70%
    12:00 +28°C° 0 mm 1 mps 714 mmHg 61%
    13:00 +30°C° 0 mm 1 mps 713 mmHg 51%
    14:00 +32°C° 0 mm 2 mps 713 mmHg 42%
    15:00 +31°C° 0 mm 2 mps 712 mmHg 44%
    16:00 +30°C° 0 mm 2 mps 712 mmHg 46%
    17:00 +30°C° 0 mm 2 mps 712 mmHg 48%
    18:00 +27°C° 0 mm 2 mps 712 mmHg 59%
    19:00 +25°C° 0 mm 1 mps 713 mmHg 70%
    20:00 +23°C° 0 mm 1 mps 713 mmHg 81%
    21:00 +20°C° 0 mm 0 mps 713 mmHg 85%
    22:00 +19°C° 0 mm 0 mps 714 mmHg 89%
    23:00 +18°C° 0 mm 0 mps 714 mmHg 94%

    23 Febrero, Sábado

    Tiempo Temperatura Precipitaciones Viento Presión Humedad
    00:00 +18°C° 0 mm 0 mps 714 mmHg 95%
    01:00 +18°C° 0 mm 0 mps 713 mmHg 97%
    02:00 +17°C° 0 mm 0 mps 713 mmHg 99%
    03:00 +17°C° 0 mm 0 mps 713 mmHg 98%
    04:00 +18°C° 0 mm 0 mps 713 mmHg 97%
    05:00 +18°C° 0 mm 0 mps 713 mmHg 96%
    06:00 +18°C° 0.1 mm 0 mps 714 mmHg 95%
    07:00 +19°C° 0.1 mm 0 mps 714 mmHg 93%
    08:00 +19°C° 0.1 mm 0 mps 715 mmHg 91%
    09:00 +21°C° 0 mm 0 mps 715 mmHg 81%
    10:00 +23°C° 0 mm 0 mps 715 mmHg 71%
    11:00 +26°C° 0 mm 1 mps 715 mmHg 61%
    12:00 +28°C° 0 mm 1 mps 714 mmHg 53%
    13:00 +30°C° 0 mm 1 mps 713 mmHg 44%
    14:00 +32°C° 0 mm 2 mps 713 mmHg 36%
    15:00 +32°C° 0 mm 2 mps 712 mmHg 39%
    16:00 +31°C° 0 mm 2 mps 712 mmHg 42%
    17:00 +30°C° 0 mm 2 mps 711 mmHg 45%
    18:00 +28°C° 0 mm 2 mps 712 mmHg 55%
    19:00 +25°C° 0 mm 1 mps 712 mmHg 65%
    20:00 +20°C° 0 mm 0 mps 712 mmHg 76%
    21:00 +20°C° 0 mm 0 mps 713 mmHg 80%
    22:00 +19°C° 0 mm 0 mps 713 mmHg 84%
    23:00 +18°C° 0 mm 0 mps 713 mmHg 88%

    24 Febrero, Domingo

    Tiempo Temperatura Precipitaciones Viento Presión Humedad
    00:00 +18°C° 0 mm 0 mps 713 mmHg 91%
    01:00 +17°C° 0 mm 0 mps 713 mmHg 94%
    02:00 +16°C° 0 mm 0 mps 712 mmHg 97%
    03:00 +17°C° 0 mm 0 mps 712 mmHg 95%
    04:00 +17°C° 0 mm 0 mps 712 mmHg 94%
    05:00 +17°C° 0 mm 0 mps 712 mmHg 92%
    06:00 +18°C° 0 mm 0 mps 713 mmHg 87%
    07:00 +19°C° 0 mm 0 mps 714 mmHg 81%
    08:00 +21°C° 0 mm 0 mps 714 mmHg 75%
    09:00 +24°C° 0 mm 1 mps 714 mmHg 71%
    10:00 +26°C° 0 mm 1 mps 714 mmHg 67%
    11:00 +27°C° 0 mm 1 mps 714 mmHg 62%
    12:00 +28°C° 0.1 mm 1 mps 713 mmHg 58%
    13:00 +29°C° 0.1 mm 1 mps 713 mmHg 54%
    14:00 +31°C° 0.1 mm 2 mps 712 mmHg 49%
    15:00 +30°C° 0.1 mm 2 mps 711 mmHg 51%
    16:00 +30°C° 0.1 mm 2 mps 711 mmHg 54%
    17:00 +29°C° 0.1 mm 2 mps 710 mmHg 56%
    18:00 +27°C° 0.1 mm 1 mps 711 mmHg 69%
    19:00 +24°C° 0.1 mm 1 mps 711 mmHg 81%
    20:00 +20°C° 0.1 mm 0 mps 711 mmHg 94%
    21:00 +20°C° 0.1 mm 0 mps 712 mmHg 95%
    22:00 +19°C° 0.1 mm 0 mps 712 mmHg 96%
    23:00 +21°C° 0.1 mm 1 mps 713 mmHg 97%
    Mostrar más